User: anonymous   Login
Location: Albany
(35.0000°S, 118.0000°E)
Time: 21:58:00
(UTC-04:00)
Language:

SJ-6B - Orbit

View from above orbital plane
View from above orbital plane
View from above satellite
View from above satellite

Ground track
Ground track

The orbit data is extracted from the following two-line orbital elements,

1 28415U 04035C   17289.52435849 +.00000266 +00000-0 +21968-4 0  9993
2 28415 097.7366 319.2520 0053642 070.0357 290.6636 15.06318499716848
Epoch (UTC): 16 October 2017 12:35:04
Eccentricity: 0.0053642
inclination: 97.7366°
perigee height: 510 km
apogee height: 584 km
right ascension of ascending node: 319.2520°
argument of perigee: 70.0357°
revolutions per day: 15.06318499
mean anomaly at epoch: 290.6636°
orbit number at epoch: 71684

The dashed part of the orbit path shows where the satellite is in the earth's shadow,  

DLR